Time,TemperatureF,DewpointF,PressureIn,WindDirection,WindDirectionDegrees,WindSpeedMPH,WindSpeedGustMPH,Humidity,HourlyPrecipIn,Conditions,Clouds,dailyrainin,SolarRadiationWatts/m^2,SoftwareType,DateUTC
2013-03-23 00:00:00,72.4,69.0,29.99,SSE,161,2.0,2.0,90,0.00,,,0.00,0,weatherlink.com 1.10,2013-03-23 04:00:00,
2013-03-23 00:15:00,72.3,69.0,29.96,SE,139,2.0,4.0,90,0.00,,,0.00,0,weatherlink.com 1.10,2013-03-23 04:15:00,
2013-03-23 00:30:00,72.2,69.0,29.98,SE,140,0.0,2.0,90,0.00,,,0.00,0,weatherlink.com 1.10,2013-03-23 04:30:00,
2013-03-23 00:45:00,72.1,69.0,29.99,SE,140,0.0,0.0,91,0.00,,,0.00,0,weatherlink.com 1.10,2013-03-23 04:45:00,
2013-03-23 01:00:00,71.9,69.0,29.98,SE,140,0.0,1.0,91,0.00,,,0.00,0,weatherlink.com 1.10,2013-03-23 05:00:00,
2013-03-23 01:15:00,71.8,69.0,29.99,SE,140,0.0,1.0,91,0.00,,,0.00,0,weatherlink.com 1.10,2013-03-23 05:15:00,
2013-03-23 01:31:00,71.8,69.0,29.93,SW,218,1.0,7.0,92,0.00,,,0.00,0,weatherlink.com 1.10,2013-03-23 05:31:00,
2013-03-23 01:46:00,72.0,70.0,29.98,NW,325,0.0,0.0,92,0.00,,,0.00,0,weatherlink.com 1.10,2013-03-23 05:46:00,
2013-03-23 02:01:00,72.2,70.0,29.97,South,179,0.0,2.0,92,0.00,,,0.00,0,weatherlink.com 1.10,2013-03-23 06:01:00,
2013-03-23 02:16:00,72.3,70.0,29.96,South,169,0.0,3.0,92,0.00,,,0.00,0,weatherlink.com 1.10,2013-03-23 06:16:00,
2013-03-23 02:31:00,72.3,70.0,29.96,SSE,168,0.0,1.0,93,0.00,,,0.00,0,weatherlink.com 1.10,2013-03-23 06:31:00,
2013-03-23 02:46:00,72.2,70.0,29.97,South,169,0.0,2.0,93,0.00,,,0.00,0,weatherlink.com 1.10,2013-03-23 06:46:00,
2013-03-23 03:01:00,72.1,70.0,29.96,South,169,0.0,1.0,93,0.00,,,0.00,0,weatherlink.com 1.10,2013-03-23 07:01:00,
2013-03-23 03:16:00,72.0,70.0,29.96,SSE,168,0.0,2.0,93,0.00,,,0.00,0,weatherlink.com 1.10,2013-03-23 07:16:00,
2013-03-23 03:31:00,72.0,70.0,29.96,South,175,0.0,2.0,94,0.00,,,0.00,0,weatherlink.com 1.10,2013-03-23 07:31:00,
2013-03-23 03:46:00,72.1,71.0,29.95,SSW,211,0.0,2.0,95,0.02,,,0.02,0,weatherlink.com 1.10,2013-03-23 07:46:00,
2013-03-23 04:01:00,71.9,71.0,29.94,SSW,211,0.0,0.0,95,0.02,,,0.02,0,weatherlink.com 1.10,2013-03-23 08:01:00,
2013-03-23 04:16:00,71.5,70.0,29.93,SSW,211,0.0,2.0,95,0.02,,,0.02,0,weatherlink.com 1.10,2013-03-23 08:16:00,
2013-03-23 04:31:00,71.1,70.0,29.93,SSW,211,0.0,1.0,96,0.02,,,0.02,0,weatherlink.com 1.10,2013-03-23 08:31:00,
2013-03-23 05:16:00,70.1,69.0,29.93,SSW,211,0.0,0.0,96,0.01,,,0.03,0,weatherlink.com 1.10,2013-03-23 09:16:00,
2013-03-23 05:46:00,69.9,69.0,29.94,SSW,211,0.0,0.0,97,0.01,,,0.03,0,weatherlink.com 1.10,2013-03-23 09:46:00,
2013-03-23 06:01:00,70.2,69.0,29.94,SSW,211,0.0,0.0,97,0.00,,,0.03,0,weatherlink.com 1.10,2013-03-23 10:01:00,
2013-03-23 06:31:00,69.8,69.0,29.94,SSW,211,0.0,0.0,97,0.00,,,0.03,0,weatherlink.com 1.10,2013-03-23 10:31:00,
2013-03-23 06:46:00,69.7,69.0,29.94,SSW,211,0.0,0.0,97,0.00,,,0.03,0,weatherlink.com 1.10,2013-03-23 10:46:00,
2013-03-23 07:46:00,69.5,69.0,29.96,SSW,211,0.0,0.0,97,0.00,,,0.03,14,weatherlink.com 1.10,2013-03-23 11:46:00,
2013-03-23 08:01:00,69.9,69.0,29.96,SSW,204,0.0,0.0,98,0.00,,,0.03,30,weatherlink.com 1.10,2013-03-23 12:01:00,
2013-03-23 08:16:00,70.3,70.0,29.96,SSE,166,0.0,0.0,98,0.00,,,0.03,46,weatherlink.com 1.10,2013-03-23 12:16:00,
2013-03-23 08:31:00,71.0,70.0,29.97,SSE,166,0.0,0.0,98,0.00,,,0.03,62,weatherlink.com 1.10,2013-03-23 12:31:00,
2013-03-23 08:46:00,71.6,71.0,29.97,NNE,18,0.0,0.0,98,0.00,,,0.03,67,weatherlink.com 1.10,2013-03-23 12:46:00,
2013-03-23 09:01:00,72.2,72.0,29.97,NNE,18,0.0,1.0,98,0.00,,,0.03,65,weatherlink.com 1.10,2013-03-23 13:01:00,
2013-03-23 09:16:00,72.8,72.0,29.97,East,91,0.0,2.0,98,0.00,,,0.03,118,weatherlink.com 1.10,2013-03-23 13:16:00,
2013-03-23 09:31:00,73.7,73.0,29.97,ESE,107,0.0,2.0,98,0.00,,,0.03,167,weatherlink.com 1.10,2013-03-23 13:31:00,
2013-03-23 09:46:00,74.8,74.0,29.97,SSW,207,0.0,2.0,96,0.00,,,0.03,139,weatherlink.com 1.10,2013-03-23 13:46:00,
2013-03-23 10:01:00,75.8,74.0,29.97,SW,217,0.0,5.0,94,0.00,,,0.03,200,weatherlink.com 1.10,2013-03-23 14:01:00,
2013-03-23 10:16:00,76.3,74.0,29.97,SW,217,1.0,6.0,92,0.00,,,0.03,276,weatherlink.com 1.10,2013-03-23 14:16:00,
2013-03-23 10:31:00,77.2,74.0,29.96,SSW,210,0.0,5.0,89,0.00,,,0.03,237,weatherlink.com 1.10,2013-03-23 14:31:00,
2013-03-23 10:46:00,77.9,74.0,29.96,SW,219,0.0,4.0,88,0.00,,,0.03,728,weatherlink.com 1.10,2013-03-23 14:46:00,
2013-03-23 11:01:00,78.8,74.0,29.96,SW,225,3.0,7.0,85,0.00,,,0.03,257,weatherlink.com 1.10,2013-03-23 15:01:00,
2013-03-23 11:16:00,79.7,75.0,29.95,SW,231,3.0,6.0,84,0.00,,,0.03,673,weatherlink.com 1.10,2013-03-23 15:16:00,
2013-03-23 11:31:00,80.4,75.0,29.94,SSW,204,1.0,5.0,82,0.00,,,0.03,269,weatherlink.com 1.10,2013-03-23 15:31:00,
2013-03-23 11:47:00,82.0,76.0,29.94,SSE,159,2.0,5.0,81,0.00,,,0.03,912,weatherlink.com 1.10,2013-03-23 15:47:00,
2013-03-23 12:02:00,83.2,75.0,29.93,SW,219,3.0,5.0,75,0.00,,,0.03,882,weatherlink.com 1.10,2013-03-23 16:02:00,
2013-03-23 12:17:00,83.6,73.0,29.93,SSE,159,2.0,6.0,71,0.00,,,0.03,847,weatherlink.com 1.10,2013-03-23 16:17:00,
2013-03-23 12:32:00,84.2,73.0,29.92,SSE,158,5.0,7.0,69,0.00,,,0.03,928,weatherlink.com 1.10,2013-03-23 16:32:00,
2013-03-23 12:47:00,85.5,73.0,29.92,SW,221,2.0,6.0,67,0.00,,,0.03,937,weatherlink.com 1.10,2013-03-23 16:47:00,
2013-03-23 13:02:00,85.6,72.0,29.91,South,178,0.0,8.0,64,0.00,,,0.03,251,weatherlink.com 1.10,2013-03-23 17:02:00,
2013-03-23 13:17:00,86.6,72.0,29.91,West,260,0.0,9.0,62,0.00,,,0.03,986,weatherlink.com 1.10,2013-03-23 17:17:00,
2013-03-23 13:32:00,86.4,70.0,29.89,SSW,213,1.0,7.0,59,0.00,,,0.03,229,weatherlink.com 1.10,2013-03-23 17:32:00,
2013-03-23 13:47:00,86.9,72.0,29.89,SW,227,3.0,9.0,61,0.00,,,0.03,939,weatherlink.com 1.10,2013-03-23 17:47:00,
2013-03-23 14:02:00,86.1,71.0,29.88,SSW,198,1.0,8.0,61,0.00,,,0.03,1000,weatherlink.com 1.10,2013-03-23 18:02:00,
2013-03-23 14:17:00,87.6,70.0,29.87,WSW,238,2.0,7.0,57,0.00,,,0.03,944,weatherlink.com 1.10,2013-03-23 18:17:00,
2013-03-23 14:32:00,86.5,70.0,29.87,SW,234,6.0,7.0,58,0.00,,,0.03,246,weatherlink.com 1.10,2013-03-23 18:32:00,
2013-03-23 14:47:00,85.9,70.0,29.86,SSE,160,1.0,9.0,59,0.00,,,0.03,149,weatherlink.com 1.10,2013-03-23 18:47:00,
2013-03-23 15:02:00,87.7,71.0,29.85,SW,236,4.0,10.0,58,0.00,,,0.03,213,weatherlink.com 1.10,2013-03-23 19:02:00,
2013-03-23 15:17:00,87.9,71.0,29.84,SW,222,3.0,6.0,58,0.00,,,0.03,840,weatherlink.com 1.10,2013-03-23 19:17:00,
2013-03-23 15:32:00,88.1,71.0,29.84,WSW,241,3.0,6.0,57,0.00,,,0.03,220,weatherlink.com 1.10,2013-03-23 19:32:00,
2013-03-23 15:47:00,87.2,70.0,29.84,SSW,197,2.0,11.0,56,0.00,,,0.03,221,weatherlink.com 1.10,2013-03-23 19:47:00,
2013-03-23 16:02:00,87.2,70.0,29.83,SW,215,2.0,7.0,56,0.00,,,0.03,149,weatherlink.com 1.10,2013-03-23 20:02:00,
2013-03-23 16:17:00,86.8,69.0,29.82,South,183,4.0,7.0,56,0.00,,,0.03,190,weatherlink.com 1.10,2013-03-23 20:17:00,
2013-03-23 16:32:00,87.6,68.0,29.82,SSW,209,2.0,11.0,52,0.00,,,0.03,172,weatherlink.com 1.10,2013-03-23 20:32:00,
2013-03-23 16:47:00,88.5,68.0,29.81,WSW,244,7.0,8.0,51,0.00,,,0.03,146,weatherlink.com 1.10,2013-03-23 20:47:00,
2013-03-23 17:02:00,88.1,67.0,29.81,South,174,2.0,9.0,50,0.00,,,0.03,146,weatherlink.com 1.10,2013-03-23 21:02:00,
2013-03-23 17:17:00,88.0,68.0,29.80,SSW,207,4.0,9.0,51,0.00,,,0.03,334,weatherlink.com 1.10,2013-03-23 21:17:00,
2013-03-23 17:32:00,87.9,68.0,29.80,SW,229,2.0,9.0,51,0.00,,,0.03,309,weatherlink.com 1.10,2013-03-23 21:32:00,
2013-03-23 17:47:00,87.0,68.0,29.80,WSW,237,1.0,7.0,53,0.00,,,0.03,51,weatherlink.com 1.10,2013-03-23 21:47:00,
2013-03-23 18:02:00,86.9,68.0,29.80,SW,228,3.0,10.0,53,0.00,,,0.03,60,weatherlink.com 1.10,2013-03-23 22:02:00,
2013-03-23 18:17:00,86.3,68.0,29.80,SSW,202,2.0,7.0,55,0.00,,,0.03,53,weatherlink.com 1.10,2013-03-23 22:17:00,
2013-03-23 18:32:00,85.8,68.0,29.81,SW,232,1.0,7.0,55,0.00,,,0.03,125,weatherlink.com 1.10,2013-03-23 22:32:00,
2013-03-23 18:47:00,86.9,68.0,29.81,SW,235,1.0,4.0,54,0.00,,,0.03,118,weatherlink.com 1.10,2013-03-23 22:47:00,
2013-03-23 19:02:00,85.7,66.0,29.82,WNW,293,3.0,6.0,52,0.00,,,0.03,32,weatherlink.com 1.10,2013-03-23 23:02:00,
2013-03-23 19:17:00,84.0,66.0,29.82,West,267,2.0,4.0,55,0.00,,,0.03,16,weatherlink.com 1.10,2013-03-23 23:17:00,
2013-03-23 19:32:00,82.8,66.0,29.83,WSW,242,1.0,4.0,57,0.00,,,0.03,0,weatherlink.com 1.10,2013-03-23 23:32:00,
2013-03-23 19:47:00,81.7,66.0,29.84,West,277,1.0,2.0,59,0.00,,,0.03,0,weatherlink.com 1.10,2013-03-23 23:47:00,
2013-03-23 20:02:00,80.8,66.0,29.84,WNW,284,2.0,3.0,61,0.00,,,0.03,0,weatherlink.com 1.10,2013-03-24 00:02:00,
2013-03-23 20:17:00,80.0,67.0,29.85,WNW,284,0.0,2.0,64,0.00,,,0.03,0,weatherlink.com 1.10,2013-03-24 00:17:00,
2013-03-23 20:32:00,79.1,67.0,29.85,WNW,284,0.0,2.0,66,0.00,,,0.03,0,weatherlink.com 1.10,2013-03-24 00:32:00,
2013-03-23 20:47:00,78.2,67.0,29.86,WNW,284,0.0,0.0,68,0.00,,,0.03,0,weatherlink.com 1.10,2013-03-24 00:47:00,
2013-03-23 21:02:00,77.1,67.0,29.86,WNW,284,0.0,0.0,71,0.00,,,0.03,0,weatherlink.com 1.10,2013-03-24 01:02:00,
2013-03-23 21:17:00,76.3,67.0,29.87,WNW,284,0.0,0.0,73,0.00,,,0.03,0,weatherlink.com 1.10,2013-03-24 01:17:00,
2013-03-23 21:32:00,76.1,68.0,29.87,WNW,284,0.0,1.0,75,0.00,,,0.03,0,weatherlink.com 1.10,2013-03-24 01:32:00,
2013-03-23 21:47:00,76.5,68.0,29.88,WNW,284,0.0,1.0,75,0.00,,,0.03,0,weatherlink.com 1.10,2013-03-24 01:47:00,
2013-03-23 22:02:00,76.5,68.0,29.88,WNW,284,0.0,1.0,75,0.00,,,0.03,0,weatherlink.com 1.10,2013-03-24 02:02:00,
2013-03-23 22:17:00,76.7,68.0,29.89,WNW,284,0.0,1.0,74,0.00,,,0.03,0,weatherlink.com 1.10,2013-03-24 02:17:00,
2013-03-23 22:32:00,76.5,68.0,29.89,WNW,284,0.0,0.0,75,0.00,,,0.03,0,weatherlink.com 1.10,2013-03-24 02:32:00,
2013-03-23 22:47:00,76.0,68.0,29.89,WNW,284,0.0,1.0,76,0.00,,,0.03,0,weatherlink.com 1.10,2013-03-24 02:47:00,
2013-03-23 23:02:00,75.8,68.0,29.90,WNW,284,0.0,1.0,77,0.00,,,0.03,0,weatherlink.com 1.10,2013-03-24 03:02:00,
2013-03-23 23:18:00,75.6,68.0,29.90,WNW,284,0.0,1.0,77,0.00,,,0.03,0,weatherlink.com 1.10,2013-03-24 03:18:00,
2013-03-23 23:33:00,75.5,68.0,29.90,WNW,284,0.0,1.0,77,0.00,,,0.03,0,weatherlink.com 1.10,2013-03-24 03:33:00,
2013-03-23 23:48:00,75.3,68.0,29.89,WNW,284,0.0,0.0,77,0.00,,,0.03,0,weatherlink.com 1.10,2013-03-24 03:48:00,